Time,TemperatureF,DewpointF,PressureIn,WindDirection,WindDirectionDegrees,WindSpeedMPH,WindSpeedGustMPH,Humidity,HourlyPrecipIn,Conditions,Clouds,dailyrainin,SoftwareType,DateUTC
2013-05-17 00:02:00,54.2,42.3,29.92,ESE,113,0.0,0.0,64,0.00,,SKC,0.00,VWS V14.01,2013-05-17 05:02:00,
2013-05-17 00:07:00,53.9,42.4,29.92,ESE,113,0.0,0.0,65,0.00,,SKC,0.00,VWS V14.01,2013-05-17 05:07:00,
2013-05-17 00:12:00,53.7,42.2,29.92,ESE,114,0.0,0.0,65,0.00,,SKC,0.00,VWS V14.01,2013-05-17 05:12:00,
2013-05-17 00:17:00,53.7,42.2,29.92,ESE,117,0.0,0.0,65,0.00,,SKC,0.00,VWS V14.01,2013-05-17 05:17:00,
2013-05-17 00:22:00,53.7,42.2,29.92,SE,128,0.0,0.0,65,0.00,,SKC,0.00,VWS V14.01,2013-05-17 05:22:00,
2013-05-17 00:27:00,53.6,42.5,29.92,SE,128,0.0,0.0,66,0.00,,SKC,0.00,VWS V14.01,2013-05-17 05:27:00,
2013-05-17 00:32:00,53.7,42.6,29.92,ESE,123,0.0,2.0,66,0.00,,SKC,0.00,VWS V14.01,2013-05-17 05:32:00,
2013-05-17 00:37:00,53.5,42.0,29.92,ESE,123,2.0,2.0,65,0.00,,SKC,0.00,VWS V14.01,2013-05-17 05:37:00,
2013-05-17 00:42:00,53.5,41.6,29.92,ESE,113,2.0,2.0,64,0.00,,SKC,0.00,VWS V14.01,2013-05-17 05:42:00,
2013-05-17 00:47:00,53.3,41.0,29.92,SE,138,2.0,2.0,63,0.00,,SKC,0.00,VWS V14.01,2013-05-17 05:47:00,
2013-05-17 00:52:00,53.1,41.3,29.92,ESE,109,1.0,2.0,64,0.00,,SKC,0.00,VWS V14.01,2013-05-17 05:52:00,
2013-05-17 00:58:00,52.9,40.2,29.92,ESE,123,1.0,2.0,62,0.00,,SKC,0.00,VWS V14.01,2013-05-17 05:58:00,
2013-05-17 01:03:00,52.8,40.6,29.92,East,90,1.0,2.0,63,0.00,,SKC,0.00,VWS V14.01,2013-05-17 06:03:00,
2013-05-17 01:08:00,52.6,40.4,29.92,ESE,102,1.0,2.0,63,0.00,,SKC,0.00,VWS V14.01,2013-05-17 06:08:00,
2013-05-17 01:13:00,52.5,39.9,29.92,ESE,103,2.0,2.0,62,0.00,,SKC,0.00,VWS V14.01,2013-05-17 06:13:00,
2013-05-17 01:18:00,52.4,39.8,29.92,ESE,108,2.0,2.0,62,0.00,,SKC,0.00,VWS V14.01,2013-05-17 06:18:00,
2013-05-17 01:23:00,52.2,39.6,29.92,ESE,111,2.0,3.0,62,0.00,,SKC,0.00,VWS V14.01,2013-05-17 06:23:00,
2013-05-17 01:28:00,52.0,39.4,29.92,ESE,105,2.0,3.0,62,0.00,,SKC,0.00,VWS V14.01,2013-05-17 06:28:00,
2013-05-17 01:33:00,51.8,39.2,29.92,ESE,112,2.0,3.0,62,0.00,,SKC,0.00,VWS V14.01,2013-05-17 06:33:00,
2013-05-17 01:38:00,51.6,39.0,29.92,ESE,109,2.0,3.0,62,0.00,,SKC,0.00,VWS V14.01,2013-05-17 06:38:00,
2013-05-17 01:43:00,51.4,39.2,29.92,ESE,105,2.0,2.0,63,0.00,,SKC,0.00,VWS V14.01,2013-05-17 06:43:00,
2013-05-17 01:48:00,51.2,39.0,29.92,ESE,113,1.0,2.0,63,0.00,,SKC,0.00,VWS V14.01,2013-05-17 06:48:00,
2013-05-17 01:53:00,51.0,38.9,29.92,ESE,113,1.0,2.0,63,0.00,,SKC,0.00,VWS V14.01,2013-05-17 06:53:00,
2013-05-17 01:58:00,50.7,39.0,29.92,ESE,113,1.0,1.0,64,0.00,,SKC,0.00,VWS V14.01,2013-05-17 06:58:00,
2013-05-17 02:03:00,50.5,39.6,29.92,ESE,113,1.0,1.0,66,0.00,,SKC,0.00,VWS V14.01,2013-05-17 07:03:00,
2013-05-17 02:08:00,50.2,39.3,29.92,ESE,105,1.0,1.0,66,0.00,,SKC,0.00,VWS V14.01,2013-05-17 07:08:00,
2013-05-17 02:13:00,49.9,39.4,29.92,ESE,110,1.0,2.0,67,0.00,,SKC,0.00,VWS V14.01,2013-05-17 07:13:00,
2013-05-17 02:18:00,49.8,38.9,29.91,SE,124,1.0,2.0,66,0.00,,SKC,0.00,VWS V14.01,2013-05-17 07:18:00,
2013-05-17 02:23:00,49.7,38.8,29.91,ESE,107,1.0,2.0,66,0.00,,SKC,0.00,VWS V14.01,2013-05-17 07:23:00,
2013-05-17 02:28:00,49.7,38.8,29.91,ESE,107,2.0,2.0,66,0.00,,SKC,0.00,VWS V14.01,2013-05-17 07:28:00,
2013-05-17 02:33:00,49.6,38.7,29.91,ESE,111,1.0,2.0,66,0.00,,SKC,0.00,VWS V14.01,2013-05-17 07:33:00,
2013-05-17 02:38:00,49.5,38.6,29.91,ESE,110,0.0,1.0,66,0.00,,SKC,0.00,VWS V14.01,2013-05-17 07:38:00,
2013-05-17 02:43:00,49.3,38.4,29.91,ESE,105,0.0,1.0,66,0.00,,SKC,0.00,VWS V14.01,2013-05-17 07:43:00,
2013-05-17 02:48:00,49.2,38.7,29.92,ESE,106,0.0,0.0,67,0.00,,SKC,0.00,VWS V14.01,2013-05-17 07:48:00,
2013-05-17 02:53:00,49.0,38.9,29.92,East,88,1.0,1.0,68,0.00,,SKC,0.00,VWS V14.01,2013-05-17 07:53:00,
2013-05-17 02:58:00,49.0,38.9,29.92,ESE,113,0.0,1.0,68,0.00,,SKC,0.00,VWS V14.01,2013-05-17 07:58:00,
2013-05-17 03:03:00,48.9,39.6,29.91,East,96,0.0,1.0,70,0.00,,SKC,0.00,VWS V14.01,2013-05-17 08:03:00,
2013-05-17 03:08:00,48.7,39.0,29.91,East,95,0.0,0.0,69,0.00,,SKC,0.00,VWS V14.01,2013-05-17 08:08:00,
2013-05-17 03:13:00,48.5,39.2,29.91,East,95,0.0,0.0,70,0.00,,SKC,0.00,VWS V14.01,2013-05-17 08:13:00,
2013-05-17 03:18:00,48.4,39.1,29.92,East,95,0.0,1.0,70,0.00,,SKC,0.00,VWS V14.01,2013-05-17 08:18:00,
2013-05-17 03:23:00,48.3,38.6,29.92,East,95,0.0,1.0,69,0.00,,SKC,0.00,VWS V14.01,2013-05-17 08:23:00,
2013-05-17 03:29:00,48.3,39.0,29.92,East,95,1.0,1.0,70,0.00,,SKC,0.00,VWS V14.01,2013-05-17 08:29:00,
2013-05-17 03:34:00,48.1,39.2,29.92,East,96,0.0,1.0,71,0.00,,SKC,0.00,VWS V14.01,2013-05-17 08:34:00,
2013-05-17 03:39:00,48.0,39.1,29.92,East,96,0.0,0.0,71,0.00,,SKC,0.00,VWS V14.01,2013-05-17 08:39:00,
2013-05-17 03:44:00,47.9,39.3,29.92,East,95,0.0,1.0,72,0.00,,SKC,0.00,VWS V14.01,2013-05-17 08:44:00,
2013-05-17 03:49:00,47.9,39.3,29.93,East,95,1.0,1.0,72,0.00,,SKC,0.00,VWS V14.01,2013-05-17 08:49:00,
2013-05-17 03:54:00,47.9,39.3,29.93,ESE,102,0.0,1.0,72,0.00,,SKC,0.00,VWS V14.01,2013-05-17 08:54:00,
2013-05-17 03:59:00,47.9,39.3,29.93,ESE,102,0.0,1.0,72,0.00,,SKC,0.00,VWS V14.01,2013-05-17 08:59:00,
2013-05-17 04:04:00,48.0,39.4,29.93,ESE,111,1.0,2.0,72,0.00,,SKC,0.00,VWS V14.01,2013-05-17 09:04:00,
2013-05-17 04:09:00,48.0,39.4,29.93,ESE,107,1.0,1.0,72,0.00,,SKC,0.00,VWS V14.01,2013-05-17 09:09:00,
2013-05-17 04:14:00,48.1,39.5,29.93,ESE,104,1.0,1.0,72,0.00,,SKC,0.00,VWS V14.01,2013-05-17 09:14:00,
2013-05-17 04:19:00,48.1,39.5,29.92,ESE,104,0.0,0.0,72,0.00,,SKC,0.00,VWS V14.01,2013-05-17 09:19:00,
2013-05-17 04:24:00,48.1,39.5,29.92,ESE,103,0.0,1.0,72,0.00,,SKC,0.00,VWS V14.01,2013-05-17 09:24:00,
2013-05-17 04:29:00,48.1,39.5,29.92,ESE,109,1.0,1.0,72,0.00,,SKC,0.00,VWS V14.01,2013-05-17 09:29:00,
2013-05-17 04:34:00,48.1,39.5,29.92,ESE,110,0.0,1.0,72,0.00,,SKC,0.00,VWS V14.01,2013-05-17 09:34:00,
2013-05-17 04:39:00,48.1,40.2,29.92,ESE,111,0.0,0.0,74,0.00,,SKC,0.00,VWS V14.01,2013-05-17 09:39:00,
2013-05-17 04:44:00,48.1,40.2,29.94,ESE,109,0.0,0.0,74,0.00,,SKC,0.00,VWS V14.01,2013-05-17 09:44:00,
2013-05-17 04:49:00,48.0,40.1,29.94,ESE,109,0.0,0.0,74,0.00,,SKC,0.00,VWS V14.01,2013-05-17 09:49:00,
2013-05-17 04:54:00,48.1,39.9,29.94,SSE,148,1.0,1.0,73,0.00,,SKC,0.00,VWS V14.01,2013-05-17 09:54:00,
2013-05-17 04:59:00,48.0,39.8,29.95,SE,146,0.0,1.0,73,0.00,,SKC,0.00,VWS V14.01,2013-05-17 09:59:00,
2013-05-17 05:04:00,48.0,40.1,29.95,SE,146,0.0,0.0,74,0.00,,SKC,0.00,VWS V14.01,2013-05-17 10:04:00,
2013-05-17 05:09:00,48.0,40.1,29.95,SE,146,1.0,1.0,74,0.00,,SKC,0.00,VWS V14.01,2013-05-17 10:09:00,
2013-05-17 05:14:00,48.0,39.4,29.97,SSE,151,0.0,2.0,72,0.00,,SKC,0.00,VWS V14.01,2013-05-17 10:14:00,
2013-05-17 05:19:00,48.0,39.8,29.97,SSE,151,0.0,1.0,73,0.00,,SKC,0.00,VWS V14.01,2013-05-17 10:19:00,
2013-05-17 05:24:00,48.0,39.4,29.97,SSE,151,0.0,1.0,72,0.00,,SKC,0.00,VWS V14.01,2013-05-17 10:24:00,
2013-05-17 05:29:00,48.0,39.8,29.97,SE,146,0.0,1.0,73,0.00,,SKC,0.00,VWS V14.01,2013-05-17 10:29:00,
2013-05-17 05:34:00,47.9,39.7,29.97,SE,133,1.0,1.0,73,0.00,,SKC,0.00,VWS V14.01,2013-05-17 10:34:00,
2013-05-17 05:39:00,47.8,39.9,29.97,East,83,1.0,2.0,74,0.00,,SKC,0.00,VWS V14.01,2013-05-17 10:39:00,
2013-05-17 05:44:00,47.8,40.3,29.97,East,87,1.0,2.0,75,0.00,,SKC,0.00,VWS V14.01,2013-05-17 10:44:00,
2013-05-17 05:49:00,47.6,40.1,29.97,East,94,1.0,1.0,75,0.00,,SKC,0.00,VWS V14.01,2013-05-17 10:49:00,
2013-05-17 05:54:00,47.5,39.6,29.97,ESE,113,0.0,1.0,74,0.00,,SKC,0.00,VWS V14.01,2013-05-17 10:54:00,
2013-05-17 05:59:00,47.4,39.5,29.97,ESE,113,0.0,1.0,74,0.00,,SKC,0.00,VWS V14.01,2013-05-17 10:59:00,
2013-05-17 06:04:00,47.3,40.1,29.97,ESE,113,0.0,1.0,76,0.00,,SKC,0.00,VWS V14.01,2013-05-17 11:04:00,
2013-05-17 06:09:00,47.3,39.8,29.97,ESE,113,0.0,1.0,75,0.00,,SKC,0.00,VWS V14.01,2013-05-17 11:09:00,
2013-05-17 06:14:00,47.4,39.9,29.98,East,96,1.0,2.0,75,0.00,,SKC,0.00,VWS V14.01,2013-05-17 11:14:00,
2013-05-17 06:19:00,47.4,39.9,29.98,ESE,111,0.0,1.0,75,0.00,,SKC,0.00,VWS V14.01,2013-05-17 11:19:00,
2013-05-17 06:24:00,47.4,39.9,29.98,SE,131,1.0,1.0,75,0.00,,SKC,0.00,VWS V14.01,2013-05-17 11:24:00,
2013-05-17 06:29:00,47.5,39.6,29.98,SE,128,1.0,3.0,74,0.00,,SKC,0.00,VWS V14.01,2013-05-17 11:29:00,
2013-05-17 06:34:00,47.5,39.6,29.98,SE,132,2.0,2.0,74,0.00,,SKC,0.00,VWS V14.01,2013-05-17 11:34:00,
2013-05-17 06:39:00,47.6,39.7,29.98,ESE,115,1.0,2.0,74,0.00,,SKC,0.00,VWS V14.01,2013-05-17 11:39:00,
2013-05-17 06:44:00,47.6,39.7,29.98,ESE,111,0.0,2.0,74,0.00,,SKC,0.00,VWS V14.01,2013-05-17 11:44:00,
2013-05-17 06:49:00,47.6,39.7,29.98,ESE,109,1.0,2.0,74,0.00,,SKC,0.00,VWS V14.01,2013-05-17 11:49:00,
2013-05-17 06:55:00,47.7,39.8,29.98,SE,126,1.0,1.0,74,0.00,,SKC,0.00,VWS V14.01,2013-05-17 11:55:00,
2013-05-17 07:00:00,47.7,40.2,29.98,ESE,121,1.0,1.0,75,0.00,,SKC,0.00,VWS V14.01,2013-05-17 12:00:00,
2013-05-17 07:05:00,47.9,39.7,29.98,ESE,111,1.0,2.0,73,0.00,,SKC,0.00,VWS V14.01,2013-05-17 12:05:00,
2013-05-17 07:10:00,48.0,39.4,29.98,SE,132,2.0,3.0,72,0.00,,SKC,0.00,VWS V14.01,2013-05-17 12:10:00,
2013-05-17 07:15:00,48.1,38.8,29.99,ESE,117,1.0,4.0,70,0.00,,SKC,0.00,VWS V14.01,2013-05-17 12:15:00,
2013-05-17 07:20:00,48.1,38.4,29.99,East,86,2.0,3.0,69,0.00,,SKC,0.00,VWS V14.01,2013-05-17 12:20:00,
2013-05-17 07:25:00,48.1,38.0,29.99,ESE,117,1.0,2.0,68,0.00,,SKC,0.00,VWS V14.01,2013-05-17 12:25:00,
2013-05-17 07:30:00,48.1,38.0,30.00,ESE,121,1.0,3.0,68,0.00,,SKC,0.00,VWS V14.01,2013-05-17 12:30:00,
2013-05-17 07:35:00,48.1,38.4,30.00,East,83,1.0,2.0,69,0.00,,SKC,0.00,VWS V14.01,2013-05-17 12:35:00,
2013-05-17 07:40:00,48.2,38.5,30.00,ESE,105,0.0,1.0,69,0.00,,SKC,0.00,VWS V14.01,2013-05-17 12:40:00,
2013-05-17 07:45:00,48.3,38.6,30.00,NNE,27,0.0,3.0,69,0.00,,SKC,0.00,VWS V14.01,2013-05-17 12:45:00,
2013-05-17 07:50:00,48.4,38.7,30.00,ENE,77,1.0,3.0,69,0.00,,SKC,0.00,VWS V14.01,2013-05-17 12:50:00,
2013-05-17 07:55:00,48.4,38.7,30.00,SE,125,1.0,3.0,69,0.00,,SKC,0.00,VWS V14.01,2013-05-17 12:55:00,
2013-05-17 08:00:00,48.5,38.8,30.00,East,97,1.0,2.0,69,0.00,,SKC,0.00,VWS V14.01,2013-05-17 13:00:00,
2013-05-17 08:05:00,48.5,38.8,30.00,East,88,1.0,2.0,69,0.00,,SKC,0.00,VWS V14.01,2013-05-17 13:05:00,
2013-05-17 08:10:00,48.6,38.5,30.00,East,96,2.0,2.0,68,0.00,,SKC,0.00,VWS V14.01,2013-05-17 13:10:00,
2013-05-17 08:15:00,48.8,39.1,30.00,ESE,115,2.0,2.0,69,0.00,,SKC,0.00,VWS V14.01,2013-05-17 13:15:00,
2013-05-17 08:20:00,49.0,38.9,30.00,ENE,60,1.0,1.0,68,0.00,,SKC,0.00,VWS V14.01,2013-05-17 13:20:00,
2013-05-17 08:25:00,49.0,38.5,30.00,SE,142,2.0,2.0,67,0.00,,SKC,0.00,VWS V14.01,2013-05-17 13:25:00,
2013-05-17 08:30:00,49.1,38.6,30.00,ESE,121,0.0,1.0,67,0.00,,SKC,0.00,VWS V14.01,2013-05-17 13:30:00,
2013-05-17 08:35:00,49.2,39.5,30.00,ESE,102,0.0,1.0,69,0.00,,SKC,0.00,VWS V14.01,2013-05-17 13:35:00,
2013-05-17 08:40:00,49.3,39.2,30.00,East,85,1.0,2.0,68,0.00,,SKC,0.00,VWS V14.01,2013-05-17 13:40:00,
2013-05-17 08:45:00,49.4,39.3,30.00,ESE,107,1.0,1.0,68,0.00,,SKC,0.00,VWS V14.01,2013-05-17 13:45:00,
2013-05-17 08:50:00,49.4,38.9,30.00,East,99,1.0,1.0,67,0.00,,SKC,0.00,VWS V14.01,2013-05-17 13:50:00,
2013-05-17 08:55:00,49.6,39.1,30.00,East,83,0.0,0.0,67,0.00,,SKC,0.00,VWS V14.01,2013-05-17 13:55:00,
2013-05-17 09:00:00,49.9,39.4,30.00,SE,132,0.0,1.0,67,0.00,,SKC,0.00,VWS V14.01,2013-05-17 14:00:00,
2013-05-17 09:05:00,50.4,39.9,30.00,SE,126,1.0,2.0,67,0.00,,SKC,0.00,VWS V14.01,2013-05-17 14:05:00,
2013-05-17 09:10:00,50.4,39.5,30.00,ESE,123,1.0,2.0,66,0.00,,SKC,0.00,VWS V14.01,2013-05-17 14:10:00,
2013-05-17 09:15:00,50.7,39.8,30.00,East,96,1.0,2.0,66,0.00,,SKC,0.00,VWS V14.01,2013-05-17 14:15:00,
2013-05-17 09:20:00,51.0,39.7,30.00,East,94,1.0,1.0,65,0.00,,SKC,0.00,VWS V14.01,2013-05-17 14:20:00,
2013-05-17 09:25:00,51.5,40.1,30.00,East,87,1.0,2.0,65,0.00,,SKC,0.00,VWS V14.01,2013-05-17 14:25:00,
2013-05-17 09:30:00,52.0,40.2,30.00,ESE,119,2.0,2.0,64,0.00,,SKC,0.00,VWS V14.01,2013-05-17 14:30:00,
2013-05-17 09:35:00,52.5,40.3,30.00,SE,133,4.0,4.0,63,0.00,,SKC,0.00,VWS V14.01,2013-05-17 14:35:00,
2013-05-17 09:40:00,52.9,40.2,30.00,East,82,2.0,3.0,62,0.00,,SKC,0.00,VWS V14.01,2013-05-17 14:40:00,
2013-05-17 09:45:00,53.3,40.2,30.00,East,88,1.0,2.0,61,0.00,,SKC,0.00,VWS V14.01,2013-05-17 14:45:00,
2013-05-17 09:50:00,53.6,40.5,30.00,ENE,78,2.0,2.0,61,0.00,,SKC,0.00,VWS V14.01,2013-05-17 14:50:00,
2013-05-17 09:55:00,54.1,40.1,30.00,ESE,106,2.0,2.0,59,0.00,,SKC,0.00,VWS V14.01,2013-05-17 14:55:00,
2013-05-17 10:00:00,54.3,39.8,30.00,East,85,2.0,3.0,58,0.00,,SKC,0.00,VWS V14.01,2013-05-17 15:00:00,
2013-05-17 10:05:00,54.7,39.8,30.00,SE,133,1.0,3.0,57,0.00,,SKC,0.00,VWS V14.01,2013-05-17 15:05:00,
2013-05-17 10:11:00,55.4,40.0,30.00,ESE,107,1.0,3.0,56,0.00,,SKC,0.00,VWS V14.01,2013-05-17 15:11:00,
2013-05-17 10:16:00,55.8,38.9,29.99,ESE,117,2.0,3.0,53,0.00,,SKC,0.00,VWS V14.01,2013-05-17 15:16:00,
2013-05-17 10:21:00,56.2,38.8,29.99,ESE,122,3.0,4.0,52,0.00,,SKC,0.00,VWS V14.01,2013-05-17 15:21:00,
2013-05-17 10:26:00,56.1,39.2,29.99,SE,143,1.0,2.0,53,0.00,,SKC,0.00,VWS V14.01,2013-05-17 15:26:00,
2013-05-17 10:31:00,56.8,39.4,29.99,SE,126,4.0,4.0,52,0.00,,SKC,0.00,VWS V14.01,2013-05-17 15:31:00,
2013-05-17 10:36:00,57.2,39.2,29.99,ESE,111,3.0,5.0,51,0.00,,SKC,0.00,VWS V14.01,2013-05-17 15:36:00,
2013-05-17 10:41:00,57.5,39.0,29.99,ESE,107,1.0,4.0,50,0.00,,SKC,0.00,VWS V14.01,2013-05-17 15:41:00,
2013-05-17 10:46:00,57.9,39.9,29.99,SE,128,1.0,2.0,51,0.00,,SKC,0.00,VWS V14.01,2013-05-17 15:46:00,
2013-05-17 10:51:00,58.5,39.9,29.99,ESE,115,2.0,3.0,50,0.00,,SKC,0.00,VWS V14.01,2013-05-17 15:51:00,
2013-05-17 10:56:00,59.1,39.5,29.99,SE,135,4.0,5.0,48,0.00,,SKC,0.00,VWS V14.01,2013-05-17 15:56:00,
2013-05-17 11:01:00,59.1,38.9,29.99,East,81,1.0,6.0,47,0.00,,SKC,0.00,VWS V14.01,2013-05-17 16:01:00,
2013-05-17 11:06:00,59.3,39.6,29.99,East,92,3.0,4.0,48,0.00,,SKC,0.00,VWS V14.01,2013-05-17 16:06:00,
2013-05-17 11:11:00,59.3,40.7,29.99,East,97,2.0,3.0,50,0.00,,SKC,0.00,VWS V14.01,2013-05-17 16:11:00,
2013-05-17 11:16:00,59.4,39.2,29.99,SE,128,1.0,3.0,47,0.00,,SKC,0.00,VWS V14.01,2013-05-17 16:16:00,
2013-05-17 11:21:00,60.0,39.7,29.99,SE,126,2.0,4.0,47,0.00,,SKC,0.00,VWS V14.01,2013-05-17 16:21:00,
2013-05-17 11:26:00,60.6,39.2,29.99,SE,144,2.0,6.0,45,0.00,,SKC,0.00,VWS V14.01,2013-05-17 16:26:00,
2013-05-17 11:31:00,61.1,40.2,29.99,East,84,2.0,4.0,46,0.00,,SKC,0.00,VWS V14.01,2013-05-17 16:31:00,
2013-05-17 11:36:00,61.9,40.3,29.99,SE,133,3.0,4.0,45,0.00,,SKC,0.00,VWS V14.01,2013-05-17 16:36:00,
2013-05-17 11:41:00,62.3,40.1,29.99,ESE,123,2.0,5.0,44,0.00,,SKC,0.00,VWS V14.01,2013-05-17 16:41:00,
2013-05-17 11:46:00,63.3,39.8,29.98,SSE,149,2.0,7.0,42,0.00,,SKC,0.00,VWS V14.01,2013-05-17 16:46:00,
2013-05-17 11:51:00,64.4,40.8,29.98,SE,125,2.0,4.0,42,0.00,,SKC,0.00,VWS V14.01,2013-05-17 16:51:00,
2013-05-17 11:56:00,65.0,40.8,29.98,East,91,3.0,5.0,41,0.00,,SKC,0.00,VWS V14.01,2013-05-17 16:56:00,
2013-05-17 12:01:00,66.0,42.9,29.97,ESE,123,1.0,4.0,43,0.00,,SKC,0.00,VWS V14.01,2013-05-17 17:01:00,
2013-05-17 12:06:00,66.5,41.5,29.97,East,90,5.0,7.0,40,0.00,,SKC,0.00,VWS V14.01,2013-05-17 17:06:00,
2013-05-17 12:11:00,66.5,41.5,29.97,East,97,5.0,5.0,40,0.00,,SKC,0.00,VWS V14.01,2013-05-17 17:11:00,
2013-05-17 12:16:00,65.8,41.5,29.97,ESE,108,4.0,7.0,41,0.00,,SKC,0.00,VWS V14.01,2013-05-17 17:16:00,
2013-05-17 12:21:00,64.6,40.4,29.97,ENE,71,3.0,4.0,41,0.00,,SKC,0.00,VWS V14.01,2013-05-17 17:21:00,
2013-05-17 12:26:00,64.6,41.0,29.97,ESE,123,3.0,4.0,42,0.00,,SKC,0.00,VWS V14.01,2013-05-17 17:26:00,
2013-05-17 12:31:00,64.6,41.0,29.97,East,90,3.0,3.0,42,0.00,,SKC,0.00,VWS V14.01,2013-05-17 17:31:00,
2013-05-17 12:37:00,65.1,42.1,29.97,SE,144,3.0,7.0,43,0.00,,SKC,0.00,VWS V14.01,2013-05-17 17:37:00,
2013-05-17 12:42:00,66.3,42.5,29.97,ESE,107,3.0,5.0,42,0.00,,SKC,0.00,VWS V14.01,2013-05-17 17:42:00,
2013-05-17 12:47:00,66.6,42.8,29.97,WSW,248,3.0,4.0,42,0.00,,SKC,0.00,VWS V14.01,2013-05-17 17:47:00,
2013-05-17 12:52:00,67.0,42.5,29.97,East,86,2.0,4.0,41,0.00,,SKC,0.00,VWS V14.01,2013-05-17 17:52:00,
2013-05-17 12:57:00,67.6,42.4,29.97,ESE,110,5.0,6.0,40,0.00,,SKC,0.00,VWS V14.01,2013-05-17 17:57:00,
2013-05-17 13:02:00,67.4,42.9,29.96,East,87,5.0,9.0,41,0.00,,SKC,0.00,VWS V14.01,2013-05-17 18:02:00,
2013-05-17 13:07:00,67.9,42.7,29.96,East,100,5.0,6.0,40,0.00,,SKC,0.00,VWS V14.01,2013-05-17 18:07:00,
2013-05-17 13:12:00,67.8,43.3,29.96,West,280,1.0,5.0,41,0.00,,SKC,0.00,VWS V14.01,2013-05-17 18:12:00,
2013-05-17 13:17:00,68.0,42.8,29.96,East,90,3.0,5.0,40,0.00,,SKC,0.00,VWS V14.01,2013-05-17 18:17:00,
2013-05-17 13:22:00,68.2,43.6,29.96,SE,145,2.0,5.0,41,0.00,,SKC,0.00,VWS V14.01,2013-05-17 18:22:00,
2013-05-17 13:27:00,68.9,44.2,29.96,SE,127,5.0,5.0,41,0.00,,SKC,0.00,VWS V14.01,2013-05-17 18:27:00,
2013-05-17 13:32:00,68.6,43.3,29.96,SSE,160,1.0,2.0,40,0.00,,SKC,0.00,VWS V14.01,2013-05-17 18:32:00,
2013-05-17 13:37:00,69.3,43.3,29.96,SSE,148,2.0,5.0,39,0.00,,SKC,0.00,VWS V14.01,2013-05-17 18:37:00,
2013-05-17 13:42:00,69.2,43.2,29.96,SSE,164,5.0,5.0,39,0.00,,SKC,0.00,VWS V14.01,2013-05-17 18:42:00,
2013-05-17 13:47:00,68.4,43.2,29.96,SE,146,2.0,5.0,40,0.00,,SKC,0.00,VWS V14.01,2013-05-17 18:47:00,
2013-05-17 13:52:00,69.7,45.6,29.96,SSW,209,1.0,5.0,42,0.00,,SKC,0.00,VWS V14.01,2013-05-17 18:52:00,
2013-05-17 13:57:00,69.9,45.8,29.96,SSE,165,2.0,5.0,42,0.00,,SKC,0.00,VWS V14.01,2013-05-17 18:57:00,
2013-05-17 14:02:00,69.9,47.0,29.95,SSE,153,2.0,6.0,44,0.00,,SKC,0.00,VWS V14.01,2013-05-17 19:02:00,
2013-05-17 14:08:00,70.3,48.0,29.95,ESE,123,4.0,5.0,45,0.00,,SKC,0.00,VWS V14.01,2013-05-17 19:08:00,
2013-05-17 14:13:00,70.4,48.7,29.95,ESE,103,4.0,5.0,46,0.00,,SKC,0.00,VWS V14.01,2013-05-17 19:13:00,
2013-05-17 14:18:00,70.2,48.5,29.95,ESE,123,3.0,6.0,46,0.00,,SKC,0.00,VWS V14.01,2013-05-17 19:18:00,
2013-05-17 14:23:00,70.2,49.0,29.95,ESE,103,3.0,5.0,47,0.00,,SKC,0.00,VWS V14.01,2013-05-17 19:23:00,
2013-05-17 14:28:00,69.7,49.2,29.95,WSW,240,1.0,9.0,48,0.00,,SKC,0.00,VWS V14.01,2013-05-17 19:28:00,
2013-05-17 14:33:00,69.6,49.6,29.95,East,96,2.0,5.0,49,0.00,,SKC,0.00,VWS V14.01,2013-05-17 19:33:00,
2013-05-17 14:38:00,69.7,49.2,29.95,WSW,247,4.0,7.0,48,0.00,,SKC,0.00,VWS V14.01,2013-05-17 19:38:00,
2013-05-17 14:43:00,69.6,49.1,29.95,SW,234,1.0,5.0,48,0.00,,SKC,0.00,VWS V14.01,2013-05-17 19:43:00,
2013-05-17 14:48:00,70.2,49.6,29.95,SE,146,3.0,5.0,48,0.00,,SKC,0.00,VWS V14.01,2013-05-17 19:48:00,
2013-05-17 14:53:00,69.9,49.3,29.95,East,89,5.0,6.0,48,0.00,,SKC,0.00,VWS V14.01,2013-05-17 19:53:00,
2013-05-17 14:58:00,70.0,50.0,29.95,ESE,120,4.0,5.0,49,0.00,,SKC,0.00,VWS V14.01,2013-05-17 19:58:00,
2013-05-17 15:03:00,70.1,50.1,29.95,SW,235,2.0,6.0,49,0.00,,SKC,0.00,VWS V14.01,2013-05-17 20:03:00,
2013-05-17 15:08:00,70.1,50.1,29.95,SE,133,2.0,7.0,49,0.00,,SKC,0.00,VWS V14.01,2013-05-17 20:08:00,
2013-05-17 15:13:00,70.5,51.0,29.95,East,96,6.0,7.0,50,0.00,,SKC,0.00,VWS V14.01,2013-05-17 20:13:00,
2013-05-17 15:18:00,70.0,50.5,29.95,East,89,3.0,5.0,50,0.00,,SKC,0.00,VWS V14.01,2013-05-17 20:18:00,
2013-05-17 15:23:00,70.2,50.2,29.95,SE,132,3.0,7.0,49,0.00,,SKC,0.00,VWS V14.01,2013-05-17 20:23:00,
2013-05-17 15:28:00,70.1,50.6,29.95,ESE,118,2.0,5.0,50,0.00,,SKC,0.00,VWS V14.01,2013-05-17 20:28:00,
2013-05-17 15:33:00,70.6,50.5,29.94,SSW,206,2.0,6.0,49,0.00,,SKC,0.00,VWS V14.01,2013-05-17 20:33:00,
2013-05-17 15:38:00,70.6,50.5,29.94,ESE,107,2.0,3.0,49,0.00,,SKC,0.00,VWS V14.01,2013-05-17 20:38:00,
2013-05-17 15:43:00,69.5,50.1,29.94,East,94,3.0,6.0,50,0.00,,SKC,0.00,VWS V14.01,2013-05-17 20:43:00,
2013-05-17 15:48:00,69.2,50.3,29.94,SE,133,2.0,5.0,51,0.00,,SKC,0.00,VWS V14.01,2013-05-17 20:48:00,
2013-05-17 15:53:00,68.7,50.4,29.94,ESE,114,3.0,5.0,52,0.00,,SKC,0.00,VWS V14.01,2013-05-17 20:53:00,
2013-05-17 16:00:00,67.9,50.7,29.94,ESE,112,3.0,5.0,54,0.00,,SKC,0.00,VWS V14.01,2013-05-17 21:00:00,
2013-05-17 16:05:00,67.7,51.0,29.94,SE,135,2.0,5.0,55,0.00,,SKC,0.00,VWS V14.01,2013-05-17 21:05:00,
2013-05-17 16:10:00,67.5,50.3,29.94,SE,135,3.0,5.0,54,0.00,,SKC,0.00,VWS V14.01,2013-05-17 21:10:00,
2013-05-17 16:22:00,67.1,50.9,29.94,SE,135,3.0,7.0,56,0.00,,SKC,0.00,VWS V14.01,2013-05-17 21:22:00,
2013-05-17 16:27:00,67.1,50.9,29.94,ESE,123,2.0,8.0,56,0.00,,SKC,0.00,VWS V14.01,2013-05-17 21:27:00,
2013-05-17 16:32:00,67.1,50.9,29.94,SW,214,2.0,5.0,56,0.00,,SKC,0.00,VWS V14.01,2013-05-17 21:32:00,
2013-05-17 16:37:00,67.3,51.1,29.94,SE,129,3.0,7.0,56,0.00,,SKC,0.00,VWS V14.01,2013-05-17 21:37:00,
2013-05-17 16:42:00,67.2,51.5,29.94,SSE,149,1.0,6.0,57,0.00,,SKC,0.00,VWS V14.01,2013-05-17 21:42:00,
2013-05-17 16:47:00,66.9,51.7,29.94,South,187,1.0,4.0,58,0.00,,SKC,0.00,VWS V14.01,2013-05-17 21:47:00,
2013-05-17 16:52:00,66.8,51.1,29.94,SSW,209,4.0,5.0,57,0.00,,SKC,0.00,VWS V14.01,2013-05-17 21:52:00,
2013-05-17 16:57:00,66.3,51.1,29.94,SSW,211,2.0,7.0,58,0.00,,SKC,0.00,VWS V14.01,2013-05-17 21:57:00,
2013-05-17 17:03:00,66.0,51.3,29.94,ESE,121,2.0,4.0,59,0.00,,SKC,0.00,VWS V14.01,2013-05-17 22:03:00,
2013-05-17 17:08:00,66.4,51.7,29.94,South,169,2.0,4.0,59,0.00,,SKC,0.00,VWS V14.01,2013-05-17 22:08:00,
2013-05-17 17:13:00,66.8,51.6,29.94,SE,146,2.0,5.0,58,0.00,,SKC,0.00,VWS V14.01,2013-05-17 22:13:00,
2013-05-17 17:18:00,66.9,51.7,29.94,ESE,119,2.0,3.0,58,0.00,,SKC,0.00,VWS V14.01,2013-05-17 22:18:00,
2013-05-17 17:23:00,67.3,52.0,29.94,SSE,161,3.0,7.0,58,0.00,,SKC,0.00,VWS V14.01,2013-05-17 22:23:00,
2013-05-17 17:28:00,67.4,51.7,29.94,ESE,113,4.0,6.0,57,0.00,,SKC,0.00,VWS V14.01,2013-05-17 22:28:00,
2013-05-17 17:33:00,66.4,51.2,29.94,East,81,2.0,8.0,58,0.00,,SKC,0.00,VWS V14.01,2013-05-17 22:33:00,
2013-05-17 17:38:00,66.1,51.4,29.94,SE,128,4.0,5.0,59,0.00,,SKC,0.00,VWS V14.01,2013-05-17 22:38:00,
2013-05-17 17:43:00,65.7,51.5,29.94,ESE,123,2.0,4.0,60,0.00,,SKC,0.00,VWS V14.01,2013-05-17 22:43:00,
2013-05-17 17:48:00,65.7,51.5,29.94,South,180,2.0,3.0,60,0.00,,SKC,0.00,VWS V14.01,2013-05-17 22:48:00,
2013-05-17 17:53:00,65.6,51.4,29.94,SE,146,3.0,3.0,60,0.00,,SKC,0.00,VWS V14.01,2013-05-17 22:53:00,
2013-05-17 17:58:00,65.5,51.7,29.94,ESE,123,2.0,7.0,61,0.00,,SKC,0.00,VWS V14.01,2013-05-17 22:58:00,
2013-05-17 18:03:00,65.5,51.3,29.94,SSE,147,4.0,6.0,60,0.00,,SKC,0.00,VWS V14.01,2013-05-17 23:03:00,
2013-05-17 18:08:00,65.3,51.5,29.94,SSW,211,2.0,5.0,61,0.00,,SKC,0.00,VWS V14.01,2013-05-17 23:08:00,
2013-05-17 18:13:00,65.2,51.4,29.94,ESE,121,2.0,3.0,61,0.00,,SKC,0.00,VWS V14.01,2013-05-17 23:13:00,
2013-05-17 18:18:00,65.2,51.4,29.94,East,100,2.0,3.0,61,0.00,,SKC,0.00,VWS V14.01,2013-05-17 23:18:00,
2013-05-17 18:23:00,65.1,51.3,29.94,SE,135,3.0,4.0,61,0.00,,SKC,0.00,VWS V14.01,2013-05-17 23:23:00,
2013-05-17 18:28:00,64.9,51.6,29.94,SE,126,2.0,4.0,62,0.00,,SKC,0.00,VWS V14.01,2013-05-17 23:28:00,
2013-05-17 18:33:00,64.9,51.2,29.95,SSE,164,2.0,8.0,61,0.00,,SKC,0.00,VWS V14.01,2013-05-17 23:33:00,
2013-05-17 18:38:00,65.0,51.2,29.95,SE,145,3.0,4.0,61,0.00,,SKC,0.00,VWS V14.01,2013-05-17 23:38:00,
2013-05-17 18:43:00,64.5,51.2,29.95,SE,134,2.0,4.0,62,0.00,,SKC,0.00,VWS V14.01,2013-05-17 23:43:00,
2013-05-17 18:48:00,64.1,50.8,29.95,SE,130,2.0,5.0,62,0.00,,SKC,0.00,VWS V14.01,2013-05-17 23:48:00,
2013-05-17 18:53:00,63.7,50.9,29.95,ESE,119,2.0,5.0,63,0.00,,SKC,0.00,VWS V14.01,2013-05-17 23:53:00,
2013-05-17 18:58:00,63.4,51.0,29.95,ESE,102,2.0,4.0,64,0.00,,SKC,0.00,VWS V14.01,2013-05-17 23:58:00,
2013-05-17 19:03:00,63.2,50.8,29.95,WSW,244,2.0,5.0,64,0.00,,SKC,0.00,VWS V14.01,2013-05-18 00:03:00,
2013-05-17 19:09:00,63.1,51.2,29.95,SE,130,2.0,3.0,65,0.00,,SKC,0.00,VWS V14.01,2013-05-18 00:09:00,
2013-05-17 19:14:00,62.9,51.0,29.95,SE,128,1.0,4.0,65,0.00,,SKC,0.00,VWS V14.01,2013-05-18 00:14:00,
2013-05-17 19:19:00,62.9,51.0,29.95,SSE,151,2.0,4.0,65,0.00,,SKC,0.00,VWS V14.01,2013-05-18 00:19:00,
2013-05-17 19:24:00,62.8,51.3,29.95,ESE,121,2.0,3.0,66,0.00,,SKC,0.00,VWS V14.01,2013-05-18 00:24:00,
2013-05-17 19:29:00,62.4,50.9,29.95,SSW,203,0.0,3.0,66,0.00,,SKC,0.00,VWS V14.01,2013-05-18 00:29:00,
2013-05-17 19:34:00,62.3,51.2,29.96,SSE,149,0.0,3.0,67,0.00,,SKC,0.00,VWS V14.01,2013-05-18 00:34:00,
2013-05-17 19:39:00,62.1,51.0,29.96,SE,140,1.0,2.0,67,0.00,,SKC,0.00,VWS V14.01,2013-05-18 00:39:00,
2013-05-17 19:44:00,61.9,51.2,29.96,ESE,123,1.0,3.0,68,0.00,,SKC,0.00,VWS V14.01,2013-05-18 00:44:00,
2013-05-17 19:49:00,61.5,51.2,29.97,SE,129,3.0,5.0,69,0.00,,SKC,0.00,VWS V14.01,2013-05-18 00:49:00,
2013-05-17 19:54:00,61.1,50.9,29.97,SE,138,1.0,4.0,69,0.00,,SKC,0.00,VWS V14.01,2013-05-18 00:54:00,
2013-05-17 19:59:00,60.9,51.1,29.97,SE,126,2.0,4.0,70,0.00,,SKC,0.00,VWS V14.01,2013-05-18 00:59:00,
2013-05-17 20:04:00,60.7,50.9,29.97,SE,141,1.0,4.0,70,0.00,,SKC,0.00,VWS V14.01,2013-05-18 01:04:00,
2013-05-17 20:09:00,60.4,51.0,29.97,SE,136,1.0,3.0,71,0.00,,SKC,0.00,VWS V14.01,2013-05-18 01:09:00,
2013-05-17 20:14:00,60.3,50.9,29.98,ESE,123,2.0,3.0,71,0.00,,SKC,0.00,VWS V14.01,2013-05-18 01:14:00,
2013-05-17 20:19:00,60.1,51.1,29.98,ESE,123,2.0,3.0,72,0.00,,SKC,0.00,VWS V14.01,2013-05-18 01:19:00,
2013-05-17 20:24:00,59.9,50.9,29.98,East,97,2.0,4.0,72,0.00,,SKC,0.00,VWS V14.01,2013-05-18 01:24:00,
2013-05-17 20:29:00,59.6,51.0,29.98,SE,138,2.0,3.0,73,0.00,,SKC,0.00,VWS V14.01,2013-05-18 01:29:00,
2013-05-17 20:34:00,59.3,51.4,29.98,ESE,123,3.0,5.0,75,0.00,,SKC,0.00,VWS V14.01,2013-05-18 01:34:00,
2013-05-17 20:39:00,58.8,51.6,29.98,SE,136,1.0,5.0,77,0.00,,SKC,0.00,VWS V14.01,2013-05-18 01:39:00,
2013-05-17 20:44:00,58.3,52.2,29.98,ESE,109,2.0,4.0,80,0.00,,SKC,0.00,VWS V14.01,2013-05-18 01:44:00,
2013-05-17 20:49:00,57.8,52.0,29.98,SE,125,1.0,3.0,81,0.00,,SKC,0.00,VWS V14.01,2013-05-18 01:49:00,
2013-05-17 20:54:00,57.4,52.3,29.98,ESE,117,3.0,4.0,83,0.00,,SKC,0.00,VWS V14.01,2013-05-18 01:54:00,
2013-05-17 20:59:00,57.0,52.2,29.99,SE,128,3.0,3.0,84,0.00,,SKC,0.00,VWS V14.01,2013-05-18 01:59:00,
2013-05-17 21:04:00,56.8,52.3,29.99,SE,126,2.0,3.0,85,0.00,,SKC,0.00,VWS V14.01,2013-05-18 02:04:00,
2013-05-17 21:09:00,56.6,52.5,29.99,ESE,113,3.0,4.0,86,0.00,,SKC,0.00,VWS V14.01,2013-05-18 02:09:00,
2013-05-17 21:14:00,56.3,52.5,29.99,ESE,106,2.0,4.0,87,0.00,,SKC,0.00,VWS V14.01,2013-05-18 02:14:00,
2013-05-17 21:19:00,56.0,52.5,29.99,ESE,117,2.0,4.0,88,0.00,,SKC,0.00,VWS V14.01,2013-05-18 02:19:00,
2013-05-17 21:24:00,55.7,52.5,29.99,East,86,1.0,4.0,89,0.00,,SKC,0.00,VWS V14.01,2013-05-18 02:24:00,
2013-05-17 21:29:00,55.5,52.6,29.99,East,99,1.0,2.0,90,0.00,,SKC,0.00,VWS V14.01,2013-05-18 02:29:00,
2013-05-17 21:34:00,55.4,52.5,29.99,ESE,102,1.0,2.0,90,0.00,,SKC,0.00,VWS V14.01,2013-05-18 02:34:00,
2013-05-17 21:40:00,55.4,52.5,29.99,ESE,119,2.0,3.0,90,0.00,,SKC,0.00,VWS V14.01,2013-05-18 02:40:00,
2013-05-17 21:45:00,55.4,52.5,29.99,ESE,113,2.0,2.0,90,0.00,,SKC,0.00,VWS V14.01,2013-05-18 02:45:00,
2013-05-17 21:50:00,55.3,52.4,29.99,ESE,107,1.0,2.0,90,0.00,,SKC,0.00,VWS V14.01,2013-05-18 02:50:00,
2013-05-17 21:55:00,55.3,52.4,29.99,ESE,103,1.0,3.0,90,0.00,,SKC,0.00,VWS V14.01,2013-05-18 02:55:00,
2013-05-17 22:00:00,55.3,52.4,29.99,ESE,105,2.0,3.0,90,0.00,,SKC,0.00,VWS V14.01,2013-05-18 03:00:00,
2013-05-17 22:05:00,55.2,52.3,29.99,ESE,111,2.0,3.0,90,0.00,,SKC,0.00,VWS V14.01,2013-05-18 03:05:00,
2013-05-17 22:10:00,55.1,52.2,29.99,East,98,2.0,3.0,90,0.00,,SKC,0.00,VWS V14.01,2013-05-18 03:10:00,
2013-05-17 22:15:00,55.0,52.1,29.99,ESE,116,2.0,4.0,90,0.00,,SKC,0.00,VWS V14.01,2013-05-18 03:15:00,
2013-05-17 22:20:00,55.0,52.1,29.99,ESE,105,2.0,3.0,90,0.00,,SKC,0.00,VWS V14.01,2013-05-18 03:20:00,
2013-05-17 22:25:00,54.9,52.0,29.99,ESE,102,2.0,4.0,90,0.00,,SKC,0.00,VWS V14.01,2013-05-18 03:25:00,
2013-05-17 22:30:00,54.7,51.8,29.98,ESE,114,3.0,5.0,90,0.00,,SKC,0.00,VWS V14.01,2013-05-18 03:30:00,
2013-05-17 22:35:00,54.7,51.8,29.98,East,92,2.0,4.0,90,0.00,,SKC,0.00,VWS V14.01,2013-05-18 03:35:00,
2013-05-17 22:40:00,54.6,51.7,29.98,SE,126,2.0,3.0,90,0.00,,SKC,0.00,VWS V14.01,2013-05-18 03:40:00,
2013-05-17 22:45:00,54.4,51.5,29.98,ESE,121,2.0,5.0,90,0.00,,SKC,0.00,VWS V14.01,2013-05-18 03:45:00,
2013-05-17 22:50:00,54.3,51.1,29.98,ESE,122,3.0,5.0,89,0.00,,SKC,0.00,VWS V14.01,2013-05-18 03:50:00,
2013-05-17 22:55:00,54.2,51.0,29.98,ESE,115,2.0,3.0,89,0.00,,SKC,0.00,VWS V14.01,2013-05-18 03:55:00,
2013-05-17 23:00:00,54.1,50.9,29.98,ESE,106,3.0,3.0,89,0.00,,SKC,0.00,VWS V14.01,2013-05-18 04:00:00,
2013-05-17 23:01:00,54.1,50.9,29.98,ESE,115,2.0,3.0,89,0.00,,SKC,0.00,VWS V14.01,2013-05-18 04:01:00,
2013-05-17 23:06:00,53.9,50.7,29.98,ESE,121,2.0,4.0,89,0.00,,SKC,0.00,VWS V14.01,2013-05-18 04:06:00,
2013-05-17 23:11:00,53.8,50.6,29.98,ESE,115,4.0,4.0,89,0.00,,SKC,0.00,VWS V14.01,2013-05-18 04:11:00,
2013-05-17 23:16:00,53.7,50.5,29.98,ESE,115,1.0,3.0,89,0.00,,SKC,0.00,VWS V14.01,2013-05-18 04:16:00,
2013-05-17 23:22:00,53.5,50.3,29.98,ESE,109,0.0,2.0,89,0.00,,SKC,0.00,VWS V14.01,2013-05-18 04:22:00,
2013-05-17 23:27:00,53.5,50.3,29.98,East,94,2.0,3.0,89,0.00,,SKC,0.00,VWS V14.01,2013-05-18 04:27:00,
2013-05-17 23:32:00,53.4,50.5,29.99,ESE,121,3.0,3.0,90,0.00,,SKC,0.00,VWS V14.01,2013-05-18 04:32:00,
2013-05-17 23:37:00,53.4,50.5,29.99,ESE,118,2.0,3.0,90,0.00,,SKC,0.00,VWS V14.01,2013-05-18 04:37:00,
2013-05-17 23:42:00,53.3,50.5,29.99,ESE,118,4.0,4.0,90,0.00,,SKC,0.00,VWS V14.01,2013-05-18 04:42:00,
2013-05-17 23:47:00,53.1,50.0,29.99,ESE,104,2.0,6.0,89,0.00,,SKC,0.00,VWS V14.01,2013-05-18 04:47:00,
2013-05-17 23:52:00,53.0,49.8,29.99,East,99,3.0,5.0,89,0.00,,SKC,0.00,VWS V14.01,2013-05-18 04:52:00,
2013-05-17 23:57:00,52.9,49.5,29.99,ESE,113,2.0,4.0,88,0.00,,SKC,0.00,VWS V14.01,2013-05-18 04:57:00,